Location: Newark
(45.6000°N, 12.8833°E)
Time: 19:30:50
(UTC+00:00)

Tiros 1 despin weight - Visible Passes

Search period start: 20 November 2019 00:00
Search period end: 30 November 2019 00:00
Orbit: 594 x 642 km, 48.2° (Epoch: 20 November)

Date Brightness Start Highest point End Pass type
(mag) Time Alt. Az. Time Alt. Az. Time Alt. Az.
20 Nov ? 16:15:58 10° WNW 16:20:27 90° NNE 16:24:59 10° ESE visible
20 Nov ? 17:57:49 10° W 18:01:42 29° SW 18:03:04 24° S visible
21 Nov ? 16:32:35 10° WNW 16:37:00 63° SSW 16:41:28 10° SE visible
21 Nov ? 18:15:05 10° W 18:17:57 17° SW 18:19:40 14° SSW visible
22 Nov ? 16:49:17 10° WNW 16:53:27 39° SSW 16:57:38 10° SE visible
23 Nov ? 17:06:14 10° W 17:09:46 23° SW 17:13:20 10° SSE visible
24 Nov ? 17:24:00 10° WSW 17:25:58 13° SW 17:27:57 10° SSW visible
25 Nov ? 15:57:36 10° W 16:01:32 31° SW 16:05:30 10° SSE visible
26 Nov ? 16:14:46 10° W 16:17:48 18° SW 16:20:51 10° S visible
